Darstellungsparameter: Aktuell verwendete Einstellungen:
Skalierung der Graphiken ... ?
xyx+y,   Skalierungsfaktor:      Skalierung: Modus: x, Faktor: 1
Darstellungszeitraum ... ?
Vom - - bis: - -   Zeitraum: 16.10.2021 - 16.10.2021
Min/Max/Avg-Anzeige ... ?
Zeige MMA aktuell
Zeige MMA Monat
Zeige MMA alles
Zeige --A aktuell
Zeige --A Monat
Zeige --A alles
Keine MMA-Anzeige
MMA:
Average (ber die Originaldaten)
MMA-Basis: 16.10.2021 - 16.10.2021
Quicknavigation für Darstellung... ?
Tage:      1T, 2T, 3T, 5T -1T -2T -3T -5T +1T +2T +3T +5T
Wochen: 1W, 2W, 3W -1W -2W -3W +1W +2W +3W
Monate: 1M, 3M, 6M -1M -3M -6M +1M +3M +6M
Jahre:    1J, 3J, 5J, 10J -1J -3J -5J -10J +1J +3J +5J +10J
Nutze für die Darstellung ... ?
Originaldaten oder Mittelwerte auf ...
Stundenbasis Tagesbasis Wochenbasis
Monatsbasis Jahresbasis      Datenbasis: Original-Daten
Darstellen als:
Statistik (Auto) Statistik J:M      Darstellung:

Der gewünschte Datumsbereich war nicht gültig/verfügbar und wurde korrigiert....
Das angegebene Enddatum (12.10.2023 23:59:59) liegt in der Zukunft.
Das angegebene Startdatum (13.09.2023 00:00:00) liegt in der Zukunft.


Zur Graphik,    zurück zur Übersicht aller Sensoren.
 
Tabellarische Datenbersicht: ?
 
Sensor: Nr:Datum:Temp:Abs-Feuchte:Windchill:Wind:
Aussen-T/F 1 16-10-2021 02:00:00 6.9 C 7.39 g/m*3 6.9 C 0 km/h
2 16-10-2021 02:05:00 6.8 C 7.34 g/m*3 6.8 C 3.2 km/h
3 16-10-2021 02:10:00 6.8 C 7.34 g/m*3 6.8 C 3.2 km/h
4 16-10-2021 02:15:00 6.8 C 7.34 g/m*3 6.8 C 0 km/h
5 16-10-2021 02:20:00 6.8 C 7.34 g/m*3 6.8 C 0 km/h
6 16-10-2021 02:25:00 6.8 C 7.34 g/m*3 6.8 C 1.6 km/h
7 16-10-2021 02:30:00 6.8 C 7.34 g/m*3 6.8 C 0 km/h
8 16-10-2021 02:35:00 6.8 C 7.42 g/m*3 6.8 C 0 km/h
9 16-10-2021 02:40:00 6.8 C 7.42 g/m*3 6.8 C 0 km/h
10 16-10-2021 02:45:00 6.9 C 7.47 g/m*3 6.9 C 0 km/h
11 16-10-2021 02:50:00 6.9 C 7.47 g/m*3 6.9 C 3.2 km/h
12 16-10-2021 02:55:00 6.9 C 7.47 g/m*3 6.9 C 4.8 km/h
13 16-10-2021 03:00:00 6.9 C 7.47 g/m*3 5.34 C 8.1 km/h
14 16-10-2021 03:05:00 6.8 C 7.42 g/m*3 5.67 C 6.4 km/h
15 16-10-2021 03:10:00 6.8 C 7.42 g/m*3 5.67 C 6.4 km/h
16 16-10-2021 03:15:00 6.8 C 7.42 g/m*3 5.67 C 6.4 km/h
17 16-10-2021 03:20:00 6.7 C 7.37 g/m*3 6.7 C 3.2 km/h
18 16-10-2021 03:25:00 6.7 C 7.37 g/m*3 6.7 C 0 km/h
19 16-10-2021 03:30:00 6.8 C 7.42 g/m*3 6.8 C 1.6 km/h
20 16-10-2021 03:35:00 6.8 C 7.42 g/m*3 6.8 C 3.2 km/h
21 16-10-2021 03:40:00 6.8 C 7.42 g/m*3 6.8 C 3.2 km/h
22 16-10-2021 03:45:00 6.7 C 7.37 g/m*3 6.7 C 1.6 km/h
23 16-10-2021 03:50:00 6.7 C 7.37 g/m*3 6.7 C 1.6 km/h
24 16-10-2021 03:55:00 6.7 C 7.37 g/m*3 6.7 C 3.2 km/h
25 16-10-2021 04:00:00 6.7 C 7.37 g/m*3 6.7 C 0 km/h
Sensor: Nr:Datum:Temp:Abs-Feuchte:Windchill:Wind:
Aussen-T/F 26 16-10-2021 04:05:00 6.7 C 7.37 g/m*3 6.7 C 1.6 km/h
27 16-10-2021 04:10:00 6.7 C 7.37 g/m*3 6.7 C 3.2 km/h
28 16-10-2021 04:15:00 6.7 C 7.37 g/m*3 6.7 C 3.2 km/h
29 16-10-2021 04:20:00 6.7 C 7.37 g/m*3 6.7 C 4.8 km/h
30 16-10-2021 04:25:00 6.6 C 7.32 g/m*3 6.6 C 3.2 km/h
31 16-10-2021 04:30:00 6.6 C 7.32 g/m*3 6.6 C 4.8 km/h
32 16-10-2021 04:35:00 6.6 C 7.32 g/m*3 6.6 C 3.2 km/h
33 16-10-2021 04:40:00 6.6 C 7.32 g/m*3 6.6 C 3.2 km/h
34 16-10-2021 04:45:00 6.6 C 7.32 g/m*3 6.6 C 3.2 km/h
35 16-10-2021 04:50:00 6.6 C 7.32 g/m*3 6.6 C 3.2 km/h
36 16-10-2021 04:55:00 6.5 C 7.27 g/m*3 6.5 C 0 km/h
37 16-10-2021 05:00:00 6.5 C 7.27 g/m*3 6.5 C 0 km/h
38 16-10-2021 05:05:00 6.5 C 7.27 g/m*3 6.5 C 0 km/h
39 16-10-2021 05:10:00 6.5 C 7.27 g/m*3 6.5 C 0 km/h
40 16-10-2021 05:15:00 6.5 C 7.27 g/m*3 6.5 C 1.6 km/h
41 16-10-2021 05:20:00 6.5 C 7.27 g/m*3 6.5 C 1.6 km/h
42 16-10-2021 05:25:00 6.4 C 7.23 g/m*3 6.4 C 3.2 km/h
43 16-10-2021 05:30:00 6.4 C 7.23 g/m*3 6.4 C 0 km/h
44 16-10-2021 05:35:00 6.4 C 7.23 g/m*3 6.4 C 0 km/h
45 16-10-2021 05:40:00 6.4 C 7.23 g/m*3 6.4 C 0 km/h
46 16-10-2021 05:45:00 6.4 C 7.23 g/m*3 6.4 C 0 km/h
47 16-10-2021 05:50:00 6.4 C 7.23 g/m*3 6.4 C 0 km/h
48 16-10-2021 05:55:00 6.4 C 7.23 g/m*3 6.4 C 0 km/h
49 16-10-2021 06:00:00 6.4 C 7.23 g/m*3 6.4 C 0 km/h
50 16-10-2021 06:05:00 6.4 C 7.23 g/m*3 6.4 C 0 km/h
Sensor: Nr:Datum:Temp:Abs-Feuchte:Windchill:Wind:
Aussen-T/F 51 16-10-2021 06:10:00 6.4 C 7.23 g/m*3 6.4 C 1.6 km/h
52 16-10-2021 06:15:00 6.4 C 7.23 g/m*3 6.4 C 3.2 km/h
53 16-10-2021 06:20:00 6.4 C 7.23 g/m*3 6.4 C 1.6 km/h
54 16-10-2021 06:25:00 6.3 C 7.18 g/m*3 6.3 C 3.2 km/h
55 16-10-2021 06:30:00 6.3 C 7.18 g/m*3 6.3 C 4.8 km/h
56 16-10-2021 06:35:00 6.3 C 7.18 g/m*3 6.3 C 0 km/h
57 16-10-2021 06:40:00 6.3 C 7.18 g/m*3 6.3 C 0 km/h
58 16-10-2021 06:45:00 6.3 C 7.18 g/m*3 6.3 C 0 km/h
59 16-10-2021 06:50:00 6.3 C 7.18 g/m*3 6.3 C 0 km/h
60 16-10-2021 06:55:00 6.3 C 7.18 g/m*3 6.3 C 1.6 km/h
61 16-10-2021 07:00:00 6.3 C 7.18 g/m*3 6.3 C 0 km/h
62 16-10-2021 07:05:00 6.2 C 7.13 g/m*3 6.2 C 1.6 km/h
63 16-10-2021 07:10:00 6.2 C 7.13 g/m*3 6.2 C 0 km/h
64 16-10-2021 07:15:00 6.2 C 7.13 g/m*3 6.2 C 0 km/h
65 16-10-2021 07:20:00 6.2 C 7.13 g/m*3 6.2 C 0 km/h
66 16-10-2021 07:25:00 6.2 C 7.13 g/m*3 6.2 C 3.2 km/h
67 16-10-2021 07:30:00 6.2 C 7.13 g/m*3 6.2 C 0 km/h
68 16-10-2021 07:35:00 6.2 C 7.13 g/m*3 6.2 C 0 km/h
69 16-10-2021 07:40:00 6.2 C 7.13 g/m*3 6.2 C 0 km/h
70 16-10-2021 07:45:00 6.2 C 7.13 g/m*3 6.2 C 1.6 km/h
71 16-10-2021 07:50:00 6.2 C 7.13 g/m*3 6.2 C 0 km/h
72 16-10-2021 07:55:00 6.3 C 7.18 g/m*3 6.3 C 0 km/h
73 16-10-2021 08:00:00 6.3 C 7.18 g/m*3 6.3 C 0 km/h
74 16-10-2021 08:05:00 6.3 C 7.18 g/m*3 6.3 C 0 km/h
75 16-10-2021 08:10:00 6.3 C 7.18 g/m*3 6.3 C 0 km/h
Sensor: Nr:Datum:Temp:Abs-Feuchte:Windchill:Wind:
Aussen-T/F 76 16-10-2021 08:15:00 6.3 C 7.18 g/m*3 6.3 C 0 km/h
77 16-10-2021 08:20:00 6.4 C 7.23 g/m*3 6.4 C 0 km/h
78 16-10-2021 08:25:00 6.4 C 7.23 g/m*3 6.4 C 0 km/h
79 16-10-2021 08:30:00 6.4 C 7.23 g/m*3 6.4 C 0 km/h
80 16-10-2021 08:35:00 6.4 C 7.23 g/m*3 6.4 C 0 km/h
81 16-10-2021 08:40:00 6.4 C 7.23 g/m*3 6.4 C 4.8 km/h
82 16-10-2021 08:45:00 6.4 C 7.23 g/m*3 6.4 C 4.8 km/h
83 16-10-2021 08:50:00 6.4 C 7.23 g/m*3 6.4 C 4.8 km/h
84 16-10-2021 08:55:00 6.3 C 7.18 g/m*3 6.3 C 3.2 km/h
85 16-10-2021 09:00:00 6.3 C 7.18 g/m*3 6.3 C 1.6 km/h
86 16-10-2021 09:05:00 6.3 C 7.18 g/m*3 6.3 C 0 km/h
87 16-10-2021 09:10:00 6.3 C 7.18 g/m*3 6.3 C 0 km/h
88 16-10-2021 09:15:00 6.3 C 7.18 g/m*3 6.3 C 0 km/h
89 16-10-2021 09:20:00 6.3 C 7.18 g/m*3 6.3 C 0 km/h
90 16-10-2021 09:25:00 6.4 C 7.23 g/m*3 6.4 C 0 km/h
91 16-10-2021 09:30:00 6.4 C 7.23 g/m*3 6.4 C 0 km/h
92 16-10-2021 09:35:00 6.3 C 7.18 g/m*3 6.3 C 0 km/h
93 16-10-2021 09:40:00 6.4 C 7.23 g/m*3 6.4 C 0 km/h
94 16-10-2021 09:45:00 6.4 C 7.23 g/m*3 6.4 C 0 km/h
95 16-10-2021 09:50:00 6.4 C 7.23 g/m*3 6.4 C 0 km/h
96 16-10-2021 09:55:00 6.5 C 7.27 g/m*3 6.5 C 0 km/h
97 16-10-2021 10:00:00 6.5 C 7.27 g/m*3 6.5 C 1.6 km/h
98 16-10-2021 10:05:00 6.6 C 7.32 g/m*3 6.6 C 0 km/h
99 16-10-2021 10:10:00 6.6 C 7.32 g/m*3 6.6 C 0 km/h
100 16-10-2021 10:15:00 6.6 C 7.32 g/m*3 6.6 C 0 km/h
Sensor: Nr:Datum:Temp:Abs-Feuchte:Windchill:Wind:
Aussen-T/F 101 16-10-2021 10:20:00 6.7 C 7.37 g/m*3 6.7 C 0 km/h
102 16-10-2021 10:25:00 6.7 C 7.37 g/m*3 6.7 C 1.6 km/h
103 16-10-2021 10:30:00 6.7 C 7.37 g/m*3 6.7 C 1.6 km/h
104 16-10-2021 10:35:00 6.7 C 7.37 g/m*3 6.7 C 3.2 km/h
105 16-10-2021 10:40:00 6.8 C 7.42 g/m*3 6.8 C 0 km/h
106 16-10-2021 10:45:00 6.8 C 7.42 g/m*3 6.8 C 0 km/h
107 16-10-2021 10:50:00 6.8 C 7.5 g/m*3 6.8 C 0 km/h
108 16-10-2021 10:55:00 6.9 C 7.54 g/m*3 6.9 C 1.6 km/h
109 16-10-2021 11:00:00 6.8 C 7.5 g/m*3 6.8 C 3.2 km/h
110 16-10-2021 11:05:00 6.9 C 7.54 g/m*3 6.9 C 0 km/h
111 16-10-2021 11:10:00 6.9 C 7.54 g/m*3 6.9 C 1.6 km/h
112 16-10-2021 11:15:00 7 C 7.59 g/m*3 7 C 0 km/h
113 16-10-2021 11:20:00 7 C 7.59 g/m*3 7 C 1.6 km/h
114 16-10-2021 11:25:00 7 C 7.59 g/m*3 7 C 0 km/h
115 16-10-2021 11:30:00 7 C 7.52 g/m*3 7 C 0 km/h
116 16-10-2021 11:35:00 7.1 C 7.57 g/m*3 7.1 C 3.2 km/h
117 16-10-2021 11:40:00 7.1 C 7.57 g/m*3 7.1 C 0 km/h
118 16-10-2021 11:45:00 7.1 C 7.57 g/m*3 7.1 C 0 km/h
119 16-10-2021 11:50:00 7.1 C 7.57 g/m*3 7.1 C 3.2 km/h
120 16-10-2021 11:55:00 7.1 C 7.57 g/m*3 7.1 C 1.6 km/h
121 16-10-2021 12:00:00 7.2 C 7.61 g/m*3 7.2 C 3.2 km/h
122 16-10-2021 12:05:00 7.2 C 7.69 g/m*3 7.2 C 3.2 km/h
123 16-10-2021 12:10:00 7.3 C 7.74 g/m*3 7.3 C 1.6 km/h
124 16-10-2021 12:15:00 7.3 C 7.74 g/m*3 7.3 C 3.2 km/h
125 16-10-2021 12:20:00 7.3 C 7.74 g/m*3 7.3 C 1.6 km/h
Sensor: Nr:Datum:Temp:Abs-Feuchte:Windchill:Wind:
Aussen-T/F 126 16-10-2021 12:25:00 7.3 C 7.74 g/m*3 7.3 C 1.6 km/h
127 16-10-2021 12:30:00 7.3 C 7.74 g/m*3 7.3 C 3.2 km/h
128 16-10-2021 12:35:00 7.3 C 7.74 g/m*3 7.3 C 3.2 km/h
129 16-10-2021 12:40:00 7.3 C 7.74 g/m*3 7.3 C 4.8 km/h
130 16-10-2021 12:45:00 7.4 C 7.71 g/m*3 7.4 C 4.8 km/h
131 16-10-2021 12:50:00 7.4 C 7.71 g/m*3 7.4 C 3.2 km/h
132 16-10-2021 12:55:00 7.4 C 7.71 g/m*3 7.4 C 4.8 km/h
133 16-10-2021 13:00:00 7.5 C 7.76 g/m*3 7.5 C 0 km/h
134 16-10-2021 13:05:00 7.5 C 7.76 g/m*3 7.5 C 0 km/h
135 16-10-2021 13:10:00 7.6 C 7.81 g/m*3 7.6 C 3.2 km/h
136 16-10-2021 13:15:00 7.6 C 7.9 g/m*3 7.6 C 3.2 km/h
137 16-10-2021 13:20:00 7.7 C 7.95 g/m*3 7.7 C 4.8 km/h
138 16-10-2021 13:25:00 7.7 C 7.95 g/m*3 7.7 C 1.6 km/h
139 16-10-2021 13:30:00 7.8 C 7.92 g/m*3 6.83 C 6.4 km/h
140 16-10-2021 13:35:00 7.8 C 7.92 g/m*3 7.8 C 1.6 km/h
141 16-10-2021 13:40:00 7.9 C 8.05 g/m*3 7.9 C 0 km/h
142 16-10-2021 13:45:00 8.1 C 8.15 g/m*3 7.17 C 6.4 km/h
143 16-10-2021 13:50:00 8.1 C 8.15 g/m*3 8.1 C 4.8 km/h
144 16-10-2021 13:55:00 8.1 C 8.15 g/m*3 8.1 C 4.8 km/h
145 16-10-2021 14:00:00 8 C 8.1 g/m*3 8 C 1.6 km/h
146 16-10-2021 14:05:00 8.2 C 8.21 g/m*3 8.2 C 1.6 km/h
147 16-10-2021 14:10:00 8.3 C 8.26 g/m*3 8.3 C 1.6 km/h
148 16-10-2021 14:15:00 8.4 C 8.31 g/m*3 7.52 C 6.4 km/h
149 16-10-2021 14:20:00 8.6 C 8.42 g/m*3 8.6 C 1.6 km/h
150 16-10-2021 14:25:00 8.5 C 8.37 g/m*3 8.5 C 3.2 km/h
Sensor: Nr:Datum:Temp:Abs-Feuchte:Windchill:Wind:
Aussen-T/F 151 16-10-2021 14:30:00 8.5 C 8.28 g/m*3 7.64 C 6.4 km/h
152 16-10-2021 14:35:00 8.6 C 8.42 g/m*3 8.6 C 3.2 km/h
153 16-10-2021 14:40:00 8.6 C 8.42 g/m*3 8.6 C 4.8 km/h
154 16-10-2021 14:45:00 8.6 C 8.42 g/m*3 8.6 C 4.8 km/h
155 16-10-2021 14:50:00 8.7 C 8.48 g/m*3 8.7 C 0 km/h
156 16-10-2021 14:55:00 8.8 C 8.44 g/m*3 8.8 C 0 km/h
157 16-10-2021 15:00:00 8.7 C 8.39 g/m*3 8.7 C 0 km/h
158 16-10-2021 15:05:00 8.7 C 8.39 g/m*3 8.7 C 0 km/h
159 16-10-2021 15:10:00 8.7 C 8.39 g/m*3 8.7 C 0 km/h
160 16-10-2021 15:15:00 8.7 C 8.39 g/m*3 8.7 C 0 km/h
161 16-10-2021 15:20:00 8.8 C 8.44 g/m*3 8.8 C 0 km/h
162 16-10-2021 15:25:00 8.9 C 8.5 g/m*3 8.9 C 0 km/h
163 16-10-2021 15:30:00 9 C 8.55 g/m*3 9 C 0 km/h
164 16-10-2021 15:35:00 9.1 C 8.61 g/m*3 9.1 C 0 km/h
165 16-10-2021 15:40:00 9.1 C 8.61 g/m*3 9.1 C 0 km/h
166 16-10-2021 15:45:00 9.2 C 8.66 g/m*3 9.2 C 0 km/h
167 16-10-2021 15:50:00 9.2 C 8.66 g/m*3 9.2 C 0 km/h
168 16-10-2021 15:55:00 9.2 C 8.66 g/m*3 9.2 C 0 km/h
169 16-10-2021 16:00:00 9.3 C 8.72 g/m*3 9.3 C 0 km/h
170 16-10-2021 16:05:00 9.3 C 8.72 g/m*3 9.3 C 0 km/h
171 16-10-2021 16:10:00 9.2 C 8.66 g/m*3 9.2 C 0 km/h
172 16-10-2021 16:15:00 9.3 C 8.72 g/m*3 9.3 C 0 km/h
173 16-10-2021 16:20:00 9.3 C 8.72 g/m*3 9.3 C 1.6 km/h
174 16-10-2021 16:25:00 9.3 C 8.72 g/m*3 9.3 C 1.6 km/h
175 16-10-2021 16:30:00 9.4 C 8.77 g/m*3 9.4 C 1.6 km/h
Sensor: Nr:Datum:Temp:Abs-Feuchte:Windchill:Wind:
Aussen-T/F 176 16-10-2021 16:35:00 9.4 C 8.77 g/m*3 9.4 C 0 km/h
177 16-10-2021 16:40:00 9.6 C 8.89 g/m*3 9.6 C 1.6 km/h
178 16-10-2021 16:45:00 9.7 C 8.94 g/m*3 9.7 C 0 km/h
179 16-10-2021 16:50:00 9.8 C 9 g/m*3 9.8 C 0 km/h
180 16-10-2021 16:55:00 9.9 C 9.06 g/m*3 9.9 C 1.6 km/h
181 16-10-2021 17:00:00 9.9 C 9.06 g/m*3 9.9 C 0 km/h
182 16-10-2021 17:05:00 10.1 C 9.17 g/m*3 10.1 C 0 km/h
183 16-10-2021 17:10:00 10.1 C 9.17 g/m*3 10.1 C 0 km/h
184 16-10-2021 17:15:00 10.3 C 9.29 g/m*3 10.3 C 0 km/h
185 16-10-2021 17:20:00 10.3 C 9.29 g/m*3 10.3 C 0 km/h

Legende:
   Min
   Max


Maximal/Minimal-Werte vom 16.10.2021 - 16.10.2021

Sensor Min Max Avg
Temp
(Aussen-T/F)
6.2 °C
16-10-2021  07:05:00
10.3 °C
16-10-2021  17:15:00
7.26 °C
Abs-Feuchte
(Aussen-T/F)
7.13 g/m*3
16-10-2021  07:05:00
9.29 g/m*3
16-10-2021  17:15:00
7.63 g/m*3
Windchill
(Aussen-T/F)
5.34 C
16-10-2021  03:00:00
10.3 C
16-10-2021  17:15:00
7.17 C

Die Daten stammen von einer Davis Vantage Pro 2 Wetter-Station und werden unter Linux mit der Software wview2wettercgi und aufbereitet. Alle Angaben erfolgen ohne Gewähr für ihre Vollständigkeit oder Richtigkeit.
Kontakt: Rainer Krienke krienke@uni-koblenz.de . Meine Webseiten an der Uni Koblenz oder privat.
Version: $Revision: 0.78 $